Weather reports worldwide

Advertisment
Schleswig, Germany (10035): temperature & dewpoint: 07.07.2020 07:00:00 - 13.07.2020 07:00:00 (CEST)Schleswig, Germany (10035): temperature 5cm & temperature -5cm: 07.07.2020 07:00:00 - 13.07.2020 07:00:00 (CEST)Schleswig, Germany (10035): temperature -20cm & temperature -100cm: 07.07.2020 07:00:00 - 13.07.2020 07:00:00 (CEST)Schleswig, Germany (10035): wind speed & gusts: 07.07.2020 07:00:00 - 13.07.2020 07:00:00 (CEST)Schleswig, Germany (10035): wind direction: 07.07.2020 07:00:00 - 13.07.2020 07:00:00 (CEST)Schleswig, Germany (10035): reduced air pressure: 07.07.2020 07:00:00 - 13.07.2020 07:00:00 (CEST)Schleswig, Germany (10035): visibility: 07.07.2020 07:00:00 - 13.07.2020 07:00:00 (CEST)Schleswig, Germany (10035): sunshine duration: 07.07.2020 07:00:00 - 13.07.2020 07:00:00 (CEST)Schleswig, Germany (10035): precipitation: 07.07.2020 07:00:00 - 13.07.2020 07:00:00 (CEST)
Date & Time tt [°C] td [°C] tt 5cm [°C] tt -5cm [°C] tt -20cm [°C] tt -100cm [°C] ff [km/h] ff [kn] fx [km/h] fx [kn] dd ppp [hPa] vv [km] sd [min] rr [mm]
13.07.2020 07:00:00 10,4 9,7 9,9 11,0 14,7 15,6 5 3 11 6 SSW 1025,1 14 40 0,0
13.07.2020 06:00:00 9,6 9,3 8,8 10,3 15,0 15,6 6 3 11 6 SSW 1025,0 10 3 0,0
13.07.2020 05:00:00 9,3 9,1 6,7 10,3 15,3 15,6 5 3 8 4 SW 1025,2 13 0 0,0
13.07.2020 04:00:00 9,5 9,1 8,0 10,4 15,7 15,6 5 3 8 4 SW 1025,5 20 0 0,0
13.07.2020 03:00:00 9,8 9,5 6,5 10,9 16,1 15,6 4 2 8 4 SW 1025,9 17 0 0,0
13.07.2020 02:00:00 10,3 9,8 8,3 11,4 16,5 15,6 5 3 8 5 SW 1026,1 19 0 0,0
13.07.2020 01:00:00 10,5 9,9 6,5 12,0 17,0 15,6 5 3 9 5 WSW 1026,3 23 0 0,0
13.07.2020 00:00:00 11,3 10,4 7,4 13,0 17,4 15,6 6 4 10 5 WSW 1026,5 27 0 0,0
12.07.2020 23:00:00 12,0 10,8 8,8 14,2 17,8 15,6 8 4 12 7 W 1026,9 33 0 0,0
12.07.2020 22:00:00 13,6 11,0 11,4 15,6 18,2 15,6 7 4 24 13 W 1026,9 32 43 0,0
12.07.2020 21:00:00 15,4 10,8 14,2 16,9 18,5 15,7 11 6 26 14 W 1026,6 36 60 0,0
12.07.2020 20:00:00 16,7 10,9 15,7 18,9 18,5 15,7 12 6 31 17 W 1026,6 37 51 0,0
12.07.2020 19:00:00 18,0 10,5 20,9 21,9 18,3 15,7 16 8 31 17 W 1026,7 34 58 0,0
12.07.2020 18:00:00 18,8 9,8 22,5 22,5 17,9 15,7 16 9 36 19 W 1026,8 36 57 0,0
12.07.2020 17:00:00 19,1 9,9 23,3 22,4 17,5 15,7 16 9 37 20 W 1026,9 46 45 0,0
12.07.2020 16:00:00 17,6 10,1 19,4 21,4 17,1 15,7 15 8 36 19 W 1027,3 39 19 0,0
12.07.2020 15:00:00 18,2 9,9 21,4 21,4 16,7 15,7 15 8 37 20 W 1027,2 38 5 0,0
12.07.2020 14:00:00 17,5 9,2 19,8 21,6 16,3 15,7 19 10 37 20 W 1027,2 33 0 0,0
12.07.2020 13:00:00 17,4 9,5 19,9 21,5 15,7 15,7 16 9 35 19 W 1027,1 36 8 0,0
12.07.2020 12:00:00 17,0 8,7 19,7 19,7 15,3 15,7 18 10 32 17 W 1027,0 37 1 0,0
12.07.2020 11:00:00 15,8 8,8 17,2 18,9 14,7 15,7 16 9 31 17 WNW 1027,0 39 30 0,0
12.07.2020 10:00:00 16,8 9,0 18,5 17,6 14,3 15,7 16 8 31 17 WNW 1026,7 44 26 0,0
12.07.2020 09:00:00 15,9 10,5 16,4 16,6 14,1 15,7 13 7 23 13 W 1026,4 41 58 0,0
12.07.2020 08:00:00 13,3 10,2 12,3 12,0 14,1 15,7 9 5 16 9 W 1025,8 32 53 0,0
12.07.2020 07:00:00 11,5 9,6 10,0 10,6 14,3 15,7 8 4 16 9 W 1025,5 34 60 0,0
12.07.2020 06:00:00 9,4 8,7 6,7 9,7 14,6 15,7 8 5 14 8 W 1025,3 23 13 0,0
12.07.2020 05:00:00 9,5 8,9 7,5 9,8 14,9 15,7 8 4 14 7 WSW 1025,0 23 0 0,0
12.07.2020 04:00:00 8,9 8,1 5,4 9,9 15,3 15,7 8 4 14 8 WSW 1024,9 21 0 0,0
12.07.2020 03:00:00 9,5 8,4 6,7 10,6 15,7 15,7 9 5 16 9 W 1025,0 27 0 0,0
12.07.2020 02:00:00 9,4 8,4 6,6 10,8 16,1 15,7 10 5 16 9 W 1025,0 25 0 0,0
12.07.2020 01:00:00 9,5 8,4 5,9 11,4 16,5 15,7 7 4 12 7 W 1025,0 27 0 0,0
12.07.2020 00:00:00 9,9 8,8 6,8 12,2 17,0 15,7 8 4 15 8 W 1024,9 26 0 0,0
11.07.2020 23:00:00 10,6 8,9 7,7 13,3 17,4 15,7 7 4 16 8 W 1024,7 37 0 0,0
11.07.2020 22:00:00 12,1 8,9 10,1 14,5 17,8 15,7 7 4 23 12 W 1024,3 33 24 0,0
11.07.2020 21:00:00 14,0 8,8 12,6 16,0 18,1 15,8 10 5 30 16 W 1024,0 42 45 0,0
11.07.2020 20:00:00 15,0 8,7 14,5 17,6 18,3 15,8 14 7 31 17 WNW 1023,6 34 45 0,0
11.07.2020 19:00:00 16,4 7,8 18,1 20,2 18,3 15,8 19 10 33 18 WNW 1023,3 40 50 0,0
11.07.2020 18:00:00 15,7 9,0 16,4 19,7 18,2 15,8 16 8 34 19 W 1023,0 41 1 0,0
11.07.2020 17:00:00 16,8 8,9 18,4 22,5 17,9 15,8 19 11 35 19 W 1022,7 47 37 0,0
11.07.2020 16:00:00 18,4 10,5 23,3 23,1 17,4 15,8 16 9 41 22 W 1022,3 37 35 0,0
11.07.2020 15:00:00 18,7 10,2 23,0 24,2 16,8 15,8 19 10 39 21 W 1021,9 33 56 0,0
11.07.2020 14:00:00 17,4 9,7 20,9 22,9 16,1 15,8 24 13 42 23 W 1021,7 43 39 0,0
11.07.2020 13:00:00 16,6 11,9 19,2 22,3 15,5 15,8 12 7 46 25 W 1021,3 46 37 0,8
11.07.2020 12:00:00 16,4 12,0 17,1 21,4 14,9 15,8 12 7 45 24 W 1021,0 42 35 0,7
11.07.2020 11:00:00 16,3 9,6 18,0 20,8 14,3 15,8 17 9 44 24 W 1020,5 38 46 0,0
11.07.2020 10:00:00 16,3 9,0 18,1 18,7 13,8 15,8 21 11 39 21 W 1020,0 43 58 0,0
11.07.2020 09:00:00 15,4 9,2 15,6 15,8 13,5 15,8 19 10 36 19 W 1019,7 45 52 0,0
11.07.2020 08:00:00 13,2 9,0 11,6 11,5 13,5 15,9 13 7 26 14 W 1019,0 40 52 0,0
11.07.2020 07:00:00 11,4 9,2 9,8 10,2 13,7 15,9 8 4 14 8 W 1018,7 40 60 0,0
11.07.2020 06:00:00 9,3 8,4 6,7 9,2 13,9 15,9 8 4 12 6 WSW 1018,4 32 22 0,0
11.07.2020 05:00:00 8,7 7,9 5,8 9,0 14,2 15,9 7 4 12 7 WSW 1017,9 31 0 0,0
11.07.2020 04:00:00 9,0 7,9 5,8 9,5 14,5 15,9 7 4 16 9 WSW 1017,6 34 0 0,0
11.07.2020 03:00:00 9,6 8,1 7,3 10,0 14,8 15,9 10 5 19 10 W 1017,2 38 0 0,0
11.07.2020 02:00:00 9,6 7,9 7,4 10,5 15,2 15,9 9 5 20 11 W 1016,8 34 0 0,0
11.07.2020 01:00:00 9,7 7,6 7,2 10,7 15,5 15,9 10 5 20 11 W 1016,5 36 0 0,0
11.07.2020 00:00:00 9,5 7,8 6,9 11,4 15,9 15,9 7 4 16 9 WSW 1016,0 38 0 0,0
10.07.2020 23:00:00 10,3 8,1 8,1 12,4 16,2 15,9 10 6 21 11 W 1015,3 41 0 0,0
10.07.2020 22:00:00 11,5 8,7 9,8 13,7 16,5 15,9 11 6 24 13 W 1014,7 38 16 0,0
10.07.2020 21:00:00 13,0 8,9 11,6 14,9 16,7 15,9 11 6 35 19 W 1014,2 43 39 0,0
10.07.2020 20:00:00 13,8 8,2 12,6 16,6 16,7 15,9 21 11 41 22 W 1013,8 51 24 0,0
10.07.2020 19:00:00 14,3 9,2 14,3 18,3 16,4 16,0 19 10 35 19 WNW 1013,2 51 34 0,0
10.07.2020 18:00:00 15,8 10,2 17,5 19,2 16,2 16,0 16 8 29 16 WNW 1012,2 55 21 0,1
10.07.2020 17:00:00 13,8 11,5 14,1 18,2 15,9 16,0 7 4 16 9 WSW 1011,8 15 0 0,5
10.07.2020 16:00:00 14,4 10,6 15,6 19,7 15,6 16,0 8 5 16 9 W 1011,1 42 11 0,0
10.07.2020 15:00:00 13,4 10,7 14,1 17,8 15,3 16,0 6 3 24 13 NW 1010,4 40 0 0,0
10.07.2020 14:00:00 11,4 9,9 12,9 16,5 15,2 16,0 14 8 29 15 NNW 1010,2 19 0 0,9
10.07.2020 13:00:00 12,2 11,5 13,1 15,7 15,0 16,0 9 5 18 10 NNW 1009,6 8 0 1,1
10.07.2020 12:00:00 12,6 11,5 13,3 15,7 14,8 16,0 8 4 22 12 N 1008,7 33 0 0,1
10.07.2020 11:00:00 12,4 11,2 12,8 14,8 14,7 16,0 10 5 18 10 NNE 1008,4 25 0 0,9
10.07.2020 10:00:00 12,0 11,5 12,4 14,0 14,7 16,0 7 4 14 8 N 1008,6 6 0 1,4
10.07.2020 09:00:00 11,7 11,1 11,8 13,3 14,7 16,0 9 5 15 8 NNE 1008,4 10 0 1,5
10.07.2020 08:00:00 11,3 10,6 11,4 12,9 14,8 16,0 8 5 13 7 NNE 1008,5 21 0 1,7
10.07.2020 07:00:00 11,0 10,7 11,0 12,4 14,9 16,0 6 4 9 5 NNE 1009,1 0,8 0 3,3
10.07.2020 06:00:00 10,9 10,6 10,9 12,4 15,1 16,0 3 2 7 4 N 1009,6 1,0 0 2,9
10.07.2020 05:00:00 11,2 10,2 10,9 12,5 15,2 16,1 5 3 10 6 ESE 1009,6 18 0 0,4
10.07.2020 04:00:00 11,0 9,9 10,6 12,4 15,4 16,1 6 4 10 5 NNE 1010,1 30 0 0,0
10.07.2020 03:00:00 10,6 9,9 10,1 12,4 15,6 16,1 4 2 8 4 N 1010,7 34 0 0,0
10.07.2020 02:00:00 10,6 9,8 10,2 12,6 15,9 16,1 5 3 6 4 NW 1011,0 37 0 0,0
10.07.2020 01:00:00 10,8 9,7 10,3 12,8 16,1 16,1 4 2 6 3 WSW 1011,5 37 0 0,0
10.07.2020 00:00:00 10,8 9,7 9,8 13,0 16,4 16,1 4 2 9 5 SW 1011,8 38 0 0,0
09.07.2020 23:00:00 11,7 10,2 10,0 14,1 16,6 16,1 4 2 8 4 WSW 1011,7 45 0 0,0
09.07.2020 22:00:00 12,9 9,9 11,5 15,0 16,8 16,1 5 3 8 4 S 1012,1 42 0 0,0
09.07.2020 21:00:00 14,1 9,7 13,7 16,2 16,9 16,1 3 2 8 5 E 1011,7 49 17 0,0
09.07.2020 20:00:00 14,5 9,3 14,9 17,3 16,9 16,1 4 2 11 6 ESE 1011,6 53 5 0,0
09.07.2020 19:00:00 14,5 9,5 15,6 17,8 16,8 16,1 5 3 13 7 E 1011,8 43 0 0,0
09.07.2020 18:00:00 14,8 9,9 15,6 18,8 16,5 16,1 8 4 16 8 NE 1011,8 47 0 0,0
09.07.2020 17:00:00 15,2 10,4 16,0 19,4 16,2 16,1 6 3 16 9 NE 1012,0 43 0 0,0
09.07.2020 16:00:00 14,6 10,2 16,8 19,3 15,9 16,1 8 4 13 7 ENE 1012,1 40 3 0,0
09.07.2020 15:00:00 13,3 9,9 14,9 18,0 15,6 16,2 8 4 15 8 E 1012,5 40 0 0,0
09.07.2020 14:00:00 12,7 10,0 14,2 17,3 15,3 16,2 9 5 18 10 ESE 1012,6 46 0 0,4
09.07.2020 13:00:00 12,4 10,6 14,1 15,4 15,2 16,2 4 2 10 5 SSE 1013,2 17 0 1,3
09.07.2020 12:00:00 12,3 9,8 11,9 14,6 15,2 16,2 6 4 14 8 SE 1013,4 21 0 0,7
09.07.2020 11:00:00 13,2 8,3 13,7 14,9 15,0 16,2 6 3 15 8 ESE 1013,8 41 0 0,0
09.07.2020 10:00:00 13,1 8,8 14,1 15,1 14,8 16,2 6 3 13 7 E 1013,9 47 0 0,0
09.07.2020 09:00:00 12,9 9,4 14,0 14,5 14,7 16,2 4 2 9 5 SE 1014,3 52 0 0,0
09.07.2020 08:00:00 11,6 8,9 11,6 13,0 14,7 16,2 0 0 6 3 N 1014,7 44 0 0,0
09.07.2020 07:00:00 10,2 8,6 9,8 11,6 14,8 16,2 3 2 7 4 S 1014,9 34 2 0,0
09.07.2020 06:00:00 9,1 8,4 8,5 10,7 15,1 16,2 3 1 7 4 S 1015,1 31 11 0,0
09.07.2020 05:00:00 8,6 7,8 7,5 10,5 15,4 16,2 4 2 6 3 SSW 1015,2 38 0 0,0
09.07.2020 04:00:00 8,3 7,6 7,4 10,4 15,7 16,2 5 3 6 3 SW 1015,5 35 0 0,0
09.07.2020 03:00:00 8,5 7,7 6,8 10,6 16,1 16,2 4 2 6 3 SW 1015,8 38 0 0,0
09.07.2020 02:00:00 8,8 7,8 6,7 11,1 16,5 16,2 3 2 11 6 SW 1015,7 38 0 0,0
09.07.2020 01:00:00 9,0 7,9 6,6 11,6 16,9 16,2 7 4 10 5 W 1016,0 39 0 0,0
09.07.2020 00:00:00 9,5 8,0 7,5 12,3 17,3 16,2 6 4 10 5 WSW 1016,1 29 0 0,0
08.07.2020 23:00:00 9,9 8,3 7,7 13,3 17,8 16,2 8 4 11 6 W 1015,9 35 0 0,0
08.07.2020 22:00:00 11,3 8,4 9,1 14,5 18,2 16,2 7 4 17 9 W 1015,9 38 4 0,0
08.07.2020 21:00:00 13,2 8,3 12,4 15,9 18,5 16,3 9 5 24 13 WNW 1015,5 37 33 0,0
08.07.2020 20:00:00 14,0 7,8 13,6 17,3 18,7 16,3 14 8 31 17 WNW 1015,2 42 45 0,0
08.07.2020 19:00:00 14,8 7,4 15,5 19,9 18,6 16,3 17 9 29 16 W 1014,8 36 40 0,0
08.07.2020 18:00:00 16,8 8,4 20,7 20,9 18,4 16,3 16 8 35 19 W 1014,8 39 35 0,0
08.07.2020 17:00:00 16,0 8,1 18,5 21,4 18,2 16,3 19 10 34 18 W 1014,8 41 28 0,0
08.07.2020 16:00:00 16,1 8,5 18,7 21,8 17,9 16,3 18 10 35 19 WNW 1014,8 40 15 0,0
08.07.2020 15:00:00 16,4 7,8 20,0 22,4 17,5 16,3 17 9 37 20 NW 1014,6 51 30 0,0
08.07.2020 14:00:00 16,5 8,3 19,4 22,3 17,0 16,3 15 8 35 19 W 1014,3 36 23 0,0
08.07.2020 13:00:00 17,7 8,7 22,3 22,5 16,4 16,3 17 9 35 19 W 1014,0 37 41 0,0
08.07.2020 12:00:00 16,7 10,3 19,8 20,2 15,9 16,3 16 9 36 19 WNW 1013,9 42 26 0,0
08.07.2020 11:00:00 15,1 8,9 16,5 19,7 15,5 16,3 14 8 29 16 WNW 1013,5 36 29 0,0
08.07.2020 10:00:00 14,4 7,8 15,8 18,2 15,1 16,4 17 9 31 17 WNW 1013,2 38 38 0,0
08.07.2020 09:00:00 13,6 9,2 13,9 16,0 14,9 16,4 14 8 29 15 WNW 1013,2 33 34 0,0
08.07.2020 08:00:00 13,2 10,1 13,3 13,9 14,9 16,4 7 4 15 8 W 1013,0 34 12 0,0
08.07.2020 07:00:00 11,3 9,5 10,6 12,3 15,0 16,4 7 4 11 6 WSW 1012,8 37 9 0,0
08.07.2020 06:00:00 10,1 9,2 8,6 11,8 15,2 16,4 6 3 11 6 WSW 1013,0 30 6 0,0
08.07.2020 05:00:00 10,6 9,7 10,3 12,2 15,4 16,4 6 3 10 5 SW 1013,1 30 0 0,0
08.07.2020 04:00:00 10,6 9,8 9,9 12,3 15,5 16,4 6 3 12 7 SSW 1013,3 31 0 0,0
08.07.2020 03:00:00 10,7 9,8 10,5 12,5 15,7 16,4 6 3 12 7 SW 1013,6 26 0 0,0
08.07.2020 02:00:00 10,6 9,7 10,4 12,5 15,9 16,4 5 3 12 7 SW 1013,9 25 0 0,0
08.07.2020 01:00:00 10,1 9,3 8,7 12,5 16,2 16,4 5 3 10 6 SW 1014,0 32 0 0,0
08.07.2020 00:00:00 10,6 9,3 10,2 13,0 16,4 16,4 7 4 11 6 WSW 1014,1 30 0 0,0
07.07.2020 23:00:00 10,4 9,0 8,7 13,1 16,7 16,4 5 3 18 10 WSW 1014,1 34 0 0,0
07.07.2020 22:00:00 11,5 9,5 10,6 14,3 16,9 16,5 11 6 23 13 W 1014,0 35 0 0,0
07.07.2020 21:00:00 12,2 10,1 11,9 15,3 17,0 16,5 9 5 20 11 WSW 1014,1 33 0 0,0
07.07.2020 20:00:00 12,5 10,5 12,4 16,1 17,1 16,5 10 5 29 16 W 1014,3 37 0 0,2
07.07.2020 19:00:00 12,8 10,5 13,1 16,8 17,2 16,5 8 5 32 18 WSW 1014,5 36 1 0,1
07.07.2020 18:00:00 12,5 9,8 12,6 16,9 17,1 16,5 14 8 39 21 WNW 1014,8 40 6 0,0
07.07.2020 17:00:00 14,7 9,6 15,4 18,0 17,0 16,5 18 10 37 20 WSW 1014,5 41 6 0,0
07.07.2020 16:00:00 14,6 12,3 16,3 17,4 17,0 16,5 13 7 34 19 SW 1014,6 43 4 0,0
07.07.2020 15:00:00 13,3 11,7 13,3 17,3 17,0 16,5 15 8 38 20 SW 1015,0 30 0 5,3
07.07.2020 14:00:00 13,5 11,1 13,2 18,6 16,7 16,5 16 9 41 22 WSW 1015,4 11 5 0,9
07.07.2020 13:00:00 15,2 12,2 18,1 20,0 16,4 16,5 14 8 53 29 SW 1015,3 25 33 1,1
07.07.2020 12:00:00 16,5 8,4 18,6 20,0 16,0 16,5 17 9 39 21 SW 1015,7 37 28 0,0
07.07.2020 11:00:00 15,5 8,7 17,1 18,7 15,6 16,5 16 8 35 19 WSW 1016,5 43 18 0,0
07.07.2020 10:00:00 15,6 9,1 17,1 17,5 15,2 16,5 16 8 40 22 WSW 1016,5 36 38 0,0
07.07.2020 09:00:00 13,9 9,0 14,5 15,5 15,0 16,5 15 8 34 18 W 1016,8 30 32 0,0
07.07.2020 08:00:00 13,4 9,1 13,3 12,2 15,1 16,5 9 5 20 11 WSW 1016,7 35 60 0,0
07.07.2020 07:00:00 11,6 8,1 9,9 11,3 15,4 16,5 10 5 22 12 WSW 1016,8 36 60 0,0

tt = temperature
td = dewpoint
tt 5cm = temperature 5cm
tt -5cm = temperature -5cm
tt -20cm = temperature -20cm
tt -100cm = temperature -100cm
ff = wind speed
fx = gusts
dd = wind direction
ppp = reduced air pressure
vv = visibility
sd = sunshine duration
rr = precipitation

Next stations